Coffeyville, KS

7:44 AM CDT on May 20, 2018 (GMT -0500)
Coffeyville Municipal

Weather History for KCFV - October, 2013

Change the Weather History Date:

Tuesday, October 22, 2013

  Actual Average Record
Temperature  
Mean Temperature 56 °F -  
Max Temperature 72 °F 67 °F 82 °F (2003)
Min Temperature 39 °F 45 °F 30 °F (2006)
Degree Days  
Heating Degree Days 10    
Growing Degree Days 6 (Base 50)    
Moisture  
Dew Point 40 °F    
Average Humidity 65    
Maximum Humidity 86    
Minimum Humidity 29    
Precipitation  
Precipitation 0.00 in - - ()
Sea Level Pressure  
Sea Level Pressure 30.03 in    
Wind  
Wind Speed 8 mph (West)    
Max Wind Speed 17 mph    
Max Gust Speed 25 mph    
Visibility 10 miles    
Events      
Averages and records for this station are not official NWS values.
T = Trace of Precipitation, MM = Missing Value Source: NWS Daily Summary

Daily Weather History Graph

Daily Weather History Graph

Search for Another Location

Airport or City:

Astronomy

Oct. 22, 2013 Rise Set
Actual Time 7:36 AM CDT 6:35 PM CDT
Civil Twilight 7:10 AM CDT 7:02 PM CDT
Nautical Twilight 6:40 AM CDT 7:32 PM CDT
Astronomical Twilight 6:09 AM CDT 8:02 PM CDT
Moon 9:20 PM CDT (10/22) 11:02 AM CDT (10/22)
Length of Visible Light 11h 51m
Length of Day
10h 59m
Waning Gibbous, 86% of the Moon is Illuminated
Oct 22
Waning Gibbous
Oct 26
Last Quarter
Nov 3
New
Nov 9
First Quarter
Nov 17
Full

Hourly Weather History & Observations

Time (CDT) Temp. Windchill Dew Point Humidity Pressure Visibility Wind Dir Wind Speed Gust Speed Precip Events Conditions
12:52 AM 41.0 °F 37.1 °F 37.0 °F 86% 30.09 in 10.0 mi South 5.8 mph - N/A   Clear
1:52 AM 41.0 °F 37.1 °F 37.0 °F 86% 30.08 in 10.0 mi South 5.8 mph - N/A   Clear
2:52 AM 39.9 °F 35.8 °F 36.0 °F 86% 30.07 in 10.0 mi South 5.8 mph - N/A   Clear
3:52 AM 41.0 °F 36.4 °F 37.0 °F 86% 30.06 in 10.0 mi South 6.9 mph - N/A   Clear
4:52 AM 41.0 °F 37.1 °F 37.0 °F 86% 30.04 in 10.0 mi South 5.8 mph - N/A   Clear
5:52 AM 43.0 °F 38.2 °F 37.9 °F 82% 30.04 in 10.0 mi South 8.1 mph - N/A   Overcast
6:52 AM 45.0 °F 40.1 °F 39.0 °F 80% 30.02 in 10.0 mi South 9.2 mph - N/A   Overcast
7:52 AM 45.0 °F 41.2 °F 39.9 °F 82% 30.02 in 10.0 mi South 6.9 mph - 0.00 in   Overcast
8:52 AM 46.9 °F - 41.0 °F 80% 30.03 in 10.0 mi South 4.6 mph - N/A   Partly Cloudy
9:52 AM 54.0 °F - 42.1 °F 64% 30.03 in 10.0 mi WSW 6.9 mph - N/A   Mostly Cloudy
10:52 AM 59.0 °F - 43.0 °F 55% 30.01 in 10.0 mi WSW 8.1 mph - N/A   Scattered Clouds
11:52 AM 63.0 °F - 44.1 °F 50% 30.00 in 3.0 mi West 8.1 mph - N/A   Haze
12:52 PM 68.0 °F - 44.1 °F 42% 29.99 in 10.0 mi NW 12.7 mph 18.4 mph N/A   Clear
1:52 PM 70.0 °F - 43.0 °F 38% 29.98 in 10.0 mi NNW 17.3 mph 24.2 mph N/A   Clear
3:52 PM 72.0 °F - 37.9 °F 29% 29.96 in 10.0 mi NW 15.0 mph 24.2 mph N/A   Clear
4:52 PM 70.0 °F - 39.9 °F 33% 29.98 in 10.0 mi NW 16.1 mph 25.3 mph N/A   Clear
5:52 PM 68.0 °F - 41.0 °F 37% 29.97 in 10.0 mi NW 9.2 mph - N/A   Clear
6:52 PM 63.0 °F - 42.1 °F 46% 30.00 in 10.0 mi North 15.0 mph 19.6 mph N/A   Partly Cloudy
7:52 PM 57.0 °F - 42.1 °F 57% 30.03 in 10.0 mi NNW 4.6 mph - N/A   Partly Cloudy
8:52 PM 53.1 °F - 42.1 °F 66% 30.05 in 10.0 mi North 6.9 mph - N/A   Clear
9:52 PM 51.1 °F - 41.0 °F 68% 30.06 in 10.0 mi North 4.6 mph - N/A   Clear
10:52 PM 48.0 °F - 41.0 °F 77% 30.08 in 10.0 mi Calm Calm - N/A   Clear
11:52 PM 48.0 °F - 41.0 °F 77% 30.10 in 10.0 mi NNE 8.1 mph - N/A   Clear